Pittsfield, IL

10:49 PM CST on February 22, 2017 (GMT -0600)
Pittsfield Penstone Municipal

Weather History for KPPQ - January, 2010

Change the Weather History Date:

Saturday, January 23, 2010

  Actual Average (KUIN) Record (KUIN)
Temperature  
Mean Temperature 40 °F -  
Max Temperature 46 °F 36 °F 72 °F (1909)
Min Temperature 35 °F 20 °F -16 °F (1936)
Degree Days  
Heating Degree Days 24    
Moisture  
Dew Point 41 °F    
Average Humidity 99    
Maximum Humidity 100    
Minimum Humidity 93    
Precipitation  
Precipitation 0.43 in - - ()
Sea Level Pressure  
Sea Level Pressure 29.67 in    
Wind  
Wind Speed 12 mph (SE)    
Max Wind Speed 18 mph    
Max Gust Speed 24 mph    
Visibility 2 miles    
Events Fog , Rain , Thunderstorm    
Averages and records for this station are not official NWS values.
T = Trace of Precipitation, MM = Missing Value Source: NWS Daily Summary

Daily Weather History Graph

Daily Weather History Graph

Search for Another Location

Airport or City:

Trip Planner

Search our weather history database for the weather conditions in past years. The results will help you decide how hot, cold, wet, or windy it might be!

Date:

Astronomy

Jan. 23, 2010 Rise Set
Actual Time 7:17 AM CST 5:12 PM CST
Civil Twilight 6:48 AM CST 5:41 PM CST
Nautical Twilight 6:16 AM CST 6:14 PM CST
Astronomical Twilight 5:44 AM CST 6:46 PM CST
Moon 10:57 AM CST 12:38 AM CST
Length of Visible Light 10h 52m
Length of Day
9h 54m
First Quarter, 53% of the Moon is Illuminated
Jan 23
First Quarter
Jan 30
Full
Feb 5
Last Quarter
Feb 13
New
Feb 21
First Quarter

Hourly Weather History & Observations

Time (CST) Temp. Windchill Dew Point Humidity Pressure Visibility Wind Dir Wind Speed Gust Speed Precip Events Conditions
12:07 AM 35.6 °F 28.6 °F 35.6 °F 100% 29.86 in 2.0 mi ESE 9.2 mph - N/A   Overcast
12:27 AM 35.6 °F 27.5 °F 35.6 °F 100% 29.84 in 2.0 mi ESE 11.5 mph - N/A   Overcast
12:47 AM 35.6 °F 27.1 °F 35.6 °F 100% 29.85 in 2.0 mi ESE 12.7 mph - N/A   Overcast
1:07 AM 35.6 °F 27.1 °F 35.6 °F 100% 29.83 in 2.0 mi ESE 12.7 mph - N/A   Overcast
1:29 AM 35.6 °F 28.0 °F 35.6 °F 100% 29.84 in 1.8 mi ESE 10.4 mph - N/A   Overcast
1:47 AM 35.6 °F 27.5 °F 35.6 °F 100% 29.84 in 1.5 mi ESE 11.5 mph - N/A   Overcast
2:07 AM 35.6 °F 27.1 °F 35.6 °F 100% 29.83 in 1.2 mi ESE 12.7 mph - N/A   Overcast
2:27 AM 35.6 °F 27.5 °F 35.6 °F 100% 29.83 in 1.2 mi ESE 11.5 mph - N/A   Overcast
2:47 AM 37.4 °F 30.3 °F 37.4 °F 100% 29.82 in 1.2 mi ESE 10.4 mph - N/A   Overcast
3:07 AM 37.4 °F 29.3 °F 37.4 °F 100% 29.80 in 1.8 mi ESE 12.7 mph - N/A   Overcast
3:27 AM 37.4 °F 29.8 °F 37.4 °F 100% 29.80 in 1.5 mi ESE 11.5 mph - N/A   Overcast
3:47 AM 37.4 °F 28.5 °F 37.4 °F 100% 29.79 in 1.5 mi ESE 15.0 mph - N/A   Overcast
4:07 AM 37.4 °F 27.8 °F 37.4 °F 100% 29.79 in 1.8 mi ESE 17.3 mph - N/A   Overcast
4:27 AM 37.4 °F 28.9 °F 37.4 °F 100% 29.80 in 1.8 mi SE 13.8 mph 19.6 mph N/A   Overcast
4:47 AM 37.4 °F 27.8 °F 37.4 °F 100% 29.79 in 1.8 mi SE 17.3 mph 20.7 mph N/A   Overcast
5:07 AM 37.4 °F 28.2 °F 37.4 °F 100% 29.78 in 1.8 mi SE 16.1 mph - N/A   Overcast
5:27 AM 37.4 °F 27.8 °F 37.4 °F 100% 29.78 in 1.5 mi SE 17.3 mph 21.9 mph N/A   Overcast
5:47 AM 37.4 °F 28.9 °F 37.4 °F 100% 29.77 in 1.2 mi SE 13.8 mph 23.0 mph N/A   Overcast
6:07 AM 37.4 °F 27.5 °F 37.4 °F 100% 29.76 in 1.2 mi SE 18.4 mph 24.2 mph N/A   Overcast
6:27 AM 37.4 °F 28.9 °F 37.4 °F 100% 29.76 in 1.5 mi SE 13.8 mph - N/A   Overcast
6:47 AM 39.2 °F 31.2 °F 39.2 °F 100% 29.76 in 1.5 mi SE 13.8 mph 18.4 mph N/A   Overcast
7:07 AM 39.2 °F 30.8 °F 39.2 °F 100% 29.75 in 1.2 mi SE 15.0 mph - N/A   Overcast
7:27 AM 39.2 °F 31.2 °F 39.2 °F 100% 29.76 in 1.2 mi SE 13.8 mph 19.6 mph N/A   Overcast
7:47 AM 39.2 °F 30.2 °F 39.2 °F 100% 29.76 in 1.2 mi SE 17.3 mph - N/A   Overcast
8:07 AM 39.2 °F 31.2 °F 39.2 °F 100% 29.75 in 0.5 mi SE 13.8 mph - N/A Fog Fog
8:27 AM 39.2 °F 30.5 °F 39.2 °F 100% 29.75 in 0.5 mi SE 16.1 mph - N/A Fog Fog
8:47 AM 39.2 °F 30.8 °F 39.2 °F 100% 29.74 in 0.5 mi SE 15.0 mph 20.7 mph N/A Fog Fog
9:07 AM 39.2 °F 30.8 °F 39.2 °F 100% 29.73 in 0.5 mi SE 15.0 mph 19.6 mph N/A Fog Fog
9:27 AM 39.2 °F 30.5 °F 39.2 °F 100% 29.73 in 0.5 mi SE 16.1 mph 21.9 mph N/A Fog Fog
9:47 AM 41.0 °F 32.8 °F 39.2 °F 93% 29.73 in 0.5 mi SE 16.1 mph - N/A Fog Fog
10:07 AM 41.0 °F 32.8 °F 41.0 °F 100% 29.71 in 0.5 mi SE 16.1 mph 19.6 mph N/A Fog Fog
10:27 AM 41.0 °F 33.5 °F 41.0 °F 100% 29.70 in 0.5 mi SE 13.8 mph - N/A Fog Fog
10:47 AM 41.0 °F 33.1 °F 41.0 °F 100% 29.70 in 0.8 mi SE 15.0 mph 21.9 mph N/A   Overcast
11:07 AM 42.8 °F 35.1 °F 42.8 °F 100% 29.68 in 0.8 mi SE 16.1 mph 23.0 mph N/A   Overcast
11:27 AM 42.8 °F 34.8 °F 42.8 °F 100% 29.66 in 1.0 mi SE 17.3 mph 23.0 mph N/A   Overcast
11:47 AM 42.8 °F 35.1 °F 42.8 °F 100% 29.65 in 1.0 mi SE 16.1 mph - N/A   Overcast
12:07 PM 42.8 °F 35.1 °F 42.8 °F 100% 29.63 in 1.2 mi SE 16.1 mph 24.2 mph N/A   Overcast
12:27 PM 42.8 °F 35.4 °F 42.8 °F 100% 29.62 in 1.5 mi SE 15.0 mph - N/A   Overcast
12:47 PM 44.6 °F 38.4 °F 44.6 °F 100% 29.60 in 2.5 mi SSE 12.7 mph - N/A   Overcast
1:07 PM 44.6 °F 38.4 °F 44.6 °F 100% 29.59 in 3.0 mi SE 12.7 mph 19.6 mph N/A   Overcast
1:27 PM 44.6 °F 37.8 °F 44.6 °F 100% 29.59 in 2.5 mi SE 15.0 mph - N/A   Overcast
1:47 PM 44.6 °F 37.8 °F 44.6 °F 100% 29.56 in 2.0 mi SE 15.0 mph 20.7 mph N/A   Overcast
2:07 PM 44.6 °F 38.1 °F 44.6 °F 100% 29.56 in 1.8 mi SE 13.8 mph 20.7 mph N/A   Overcast
2:27 PM 44.6 °F 38.4 °F 44.6 °F 100% 29.54 in 1.5 mi SE 12.7 mph - N/A   Overcast
2:48 PM 44.6 °F 39.2 °F 44.6 °F 100% 29.54 in 2.0 mi SE 10.4 mph 16.1 mph N/A   Overcast
3:07 PM 44.6 °F 39.2 °F 44.6 °F 100% 29.53 in 2.5 mi SE 10.4 mph - N/A   Overcast
3:28 PM 44.6 °F 38.8 °F 44.6 °F 100% 29.53 in 2.5 mi SE 11.5 mph - N/A   Overcast
3:47 PM 46.4 °F 41.5 °F 44.6 °F 93% 29.53 in 3.0 mi SE 10.4 mph - N/A   Overcast
4:07 PM 46.4 °F 41.1 °F 44.6 °F 93% 29.54 in 4.0 mi SE 11.5 mph - N/A   Overcast
4:27 PM 46.4 °F 41.5 °F 44.6 °F 93% 29.55 in 4.0 mi SSE 10.4 mph - N/A   Overcast
5:07 PM 46.4 °F 42.4 °F 44.6 °F 93% 29.52 in 5.0 mi SE 8.1 mph - N/A   Overcast
5:29 PM 46.4 °F 41.9 °F 44.6 °F 93% 29.51 in 5.0 mi SE 9.2 mph - N/A   Overcast
5:47 PM 46.4 °F 41.5 °F 44.6 °F 93% 29.51 in 5.0 mi ESE 10.4 mph - N/A   Overcast
6:07 PM 46.4 °F 41.9 °F 44.6 °F 93% 29.52 in 5.0 mi SE 9.2 mph - N/A Thunderstorm Overcast
6:27 PM 46.4 °F 42.9 °F 46.4 °F 100% 29.53 in 3.0 mi SE 6.9 mph - 0.05 in Rain Rain
6:47 PM 46.4 °F 43.5 °F 46.4 °F 100% 29.52 in 2.5 mi SSE 5.8 mph - 0.11 in Rain Light Rain
7:07 PM 46.4 °F 42.9 °F 46.4 °F 100% 29.53 in 2.5 mi SSE 6.9 mph - 0.05 in Rain Rain
7:29 PM 46.4 °F 44.3 °F 46.4 °F 100% 29.48 in 2.5 mi SE 4.6 mph - 0.14 in Rain Heavy Rain
7:47 PM 46.4 °F 41.9 °F 46.4 °F 100% 29.48 in 2.0 mi ESE 9.2 mph - 0.22 in Rain Heavy Rain
8:07 PM 46.4 °F 42.9 °F 46.4 °F 100% 29.47 in 2.5 mi ESE 6.9 mph - 0.03 in Rain Rain
8:28 PM 46.4 °F 42.9 °F 46.4 °F 100% 29.44 in 2.5 mi East 6.9 mph - 0.08 in Rain Rain
8:49 PM 46.4 °F 43.5 °F 46.4 °F 100% 29.44 in 2.5 mi ESE 5.8 mph - 0.10 in Rain Light Rain
9:07 PM 46.4 °F 42.9 °F 46.4 °F 100% 29.44 in 2.0 mi ESE 6.9 mph - 0.03 in Rain Rain
9:27 PM 46.4 °F 42.9 °F 46.4 °F 100% 29.43 in 2.0 mi ESE 6.9 mph - 0.11 in Rain Heavy Rain
9:47 PM 46.4 °F - 46.4 °F 100% 29.41 in 1.8 mi Calm Calm - 0.18 in Rain Rain
10:07 PM 46.4 °F - 46.4 °F 100% 29.39 in 1.5 mi Calm Calm - 0.03 in Rain Rain
10:27 PM 46.4 °F - 46.4 °F 100% 29.38 in 2.0 mi Calm Calm - 0.08 in Rain Rain
10:47 PM 46.4 °F 43.5 °F 46.4 °F 100% 29.36 in 2.0 mi West 5.8 mph - 0.10 in Rain Rain
11:08 PM 46.4 °F - 44.6 °F 93% 29.36 in 1.2 mi Calm Calm - 0.03 in Rain Light Rain
11:28 PM 44.6 °F - 44.6 °F 100% 29.36 in 1.0 mi Calm Calm - 0.05 in Rain Light Rain
11:47 PM 46.4 °F - 46.4 °F 100% 29.34 in 2.5 mi Calm Calm - 0.08 in Rain Light Rain